Welcome to the New NWS' Forecast!
Most changes are behind the scenes, but click here for differences you might notice.
Latest weather observations around

Hartford, Hartford-Brainard Airport (KHFD)

Using English Units (Switch to International System of Units)
Date/ Time (EDT) Wind (mph) Vis. (mi) Weather Sky Cond. Temp (°F) Rel. Humidity Wind Chill (°F) Heat Index (°F) Pressure Precip. (in)
Air Dwpt 6 hour Altimeter (inHg) Sea level (inHg) 1 hr 3 hr 6 hr
Max Min
Aug 20 04:53 N 8 10 Cloudy SCT020 OVC048 66 60     81%     30.11 30.11      
Aug 20 02:53 NNE 8 10 Cloudy OVC036 66 59     78%     30.1 30.1      
Aug 19 22:53 N 7 10 Clear CLR 67 58     73%     30.1 30.1      
Aug 19 19:53 ENE 7 10 Cloudy OVC090 72 57     59%   72 30.07 30.07      
Aug 19 13:53   10 Cloudy FEW044 OVC095 77 58     52%   77 30 30      
Aug 19 06:35 NNE 10 10 Cloudy BKN026 OVC050 67 63     87%     29.95        
Aug 19 03:21 NNE 8 7 Light Rain BKN013 OVC018 68 66     93%     29.91   0    
Notice The following observation data may not be complete
Aug 18 21:19   10 Cloudy BKN014 BKN025 OVC065          %              
Aug 18 17:53 N 7 10 Partly Cloudy SCT008 SCT032 74 71     91%   75 29.79 29.78 0    
Aug 18 17:10 NNW 6 10 Light Rain SCT008 SCT038 BKN070 73 71     94%   74 29.79   0    
Aug 18 17:01 N 7 10 Light Rain FEW047 SCT070 BKN110 73 71     94%   74 29.78   0    
Aug 18 16:33 N 7 8 Light Rain FEW014 FEW048 BKN110 73 71     94%   74 29.78   0    
Aug 18 16:08 N 13 10 Cloudy SCT016 BKN055 OVC075 75 70     84%   76 29.79        
Aug 18 15:53 N 14 10 Cloudy FEW020 BKN050 OVC110 77 69     77%   78 29.79 29.79 0    
Notice The following observation data may not be complete
Aug 18 15:39   10 Mostly Cloudy FEW065 BKN110          %         0    
Aug 18 14:53 SSW 6 10 Cloudy FEW029 FEW080 OVC110 83 73     72%   89 29.76 29.75 0    
Aug 18 13:00 S 6 10 Mostly Cloudy FEW019 BKN100 81 73     77%   86 29.79        
Aug 18 12:53 S 5 10 Mostly Cloudy BKN012 81 74     79%   86 29.79 29.79      
Aug 18 10:53 S 5 10 Mostly Cloudy BKN008 77 73     88%   79 29.82 29.82      
Aug 18 07:31 S 5 10 Mostly Clear FEW004 FEW085 73 72     96%   75 29.83        
Aug 18 02:53 S 5 10 Light Rain FEW047 BKN070 BKN085 73 71     94%   74 29.86 29.85 0    
Aug 18 00:23 S 5 8 Light Rain FEW110 75 72     90%   76 29.91   0    
Aug 17 23:30 W 6 1.75 Thunderstorms and Heavy Rain and Fog/Mist BKN018 BKN026 OVC065 77 75     94%   79 29.94   0    
Aug 17 18:53 S 10 10 Partly Cloudy SCT120 82 72     72%   87 29.92 29.92 0    
Aug 17 15:53 SSE 13 10 Clear CLR 88 72     59%   95 29.95 29.95      
Aug 17 14:53 S 11 10 Mostly Cloudy SCT037 SCT050 BKN095 87 71     59%   93 29.97 29.97      
Aug 17 13:53 SSW 11 10 Clear CLR 88 71     57%   94 30 30      
Aug 17 12:53 S 7 9 Clear CLR 85 74     70%   92 30.02 30.02      
Aug 17 11:53 SSE 5 9 Clear CLR 84 73     70%   90 30.04 30.04      
Aug 17 10:53 3 8 Clear CLR 82 73     74%   87 30.06 30.06      
Aug 17 09:53 3 8 Clear CLR 79 71     77%   82 30.07 30.07      
Aug 17 08:53 ENE 3 6 Haze SCT005 77 71     82%   78 30.08 30.08      
Aug 17 08:00 Calm 5 Fog/Mist SCT005 74 71     91%   75 30.07        
Aug 17 07:53 Calm 2 Fog/Mist OVC005 73 71     94%   74 30.07 30.07      
Aug 17 07:36 Calm 2 Fog/Mist BKN005 73 71     94%   74 30.07        
Aug 17 07:16 Calm 2 Fog/Mist SCT005 72 70     93%   73 30.08        
Aug 17 06:53 Calm 2 Fog/Mist CLR 71 70     96%   72 30.08 30.07      
Aug 17 05:53 Calm 2 Fog/Mist CLR 69 69     100%     30.07 30.06      
Aug 17 04:53 Calm 4 Fog/Mist CLR 70 69     97%     30.06 30.06      
Aug 17 03:53 Calm 6 Fog/Mist CLR 72 70     93%   73 30.06 30.06      
Aug 17 03:23 Calm 5 Fog/Mist CLR 72 70     93%   73 30.06        
Aug 17 03:14 Calm 2 Fog/Mist CLR 70 69     97%     30.06        
Aug 17 02:53 Calm 5 Fog/Mist CLR 72 70     93%   73 30.07 30.06      
Aug 17 01:53 Calm 6 Fog/Mist CLR 72 70     93%   73 30.07 30.06      
Aug 17 00:53 Calm 7 Clear CLR 73 71     94%   74 30.06 30.06      
Aug 16 23:53 S 5 7 Clear CLR 74 72     94%   75 30.06 30.06      
Aug 16 22:53 Calm 8 Clear CLR 76 72     88%   77 30.06 30.05      
Aug 16 21:53 Calm 9 Clear CLR 76 72     88%   77 30.06 30.05      
Aug 16 20:53 Calm 10 Clear CLR 78 72     82%   79 30.05 30.04      
Aug 16 19:53 Calm 10 Clear CLR 84 70     63%   88 30.02 30.02      
Aug 16 18:53 WSW 6 10 Mostly Clear FEW055 87 70     57%   92 30.01 30.01      
Aug 16 17:53 W 6 10 Clear CLR 88 69     54%   92 30.01 30.01      
Aug 16 16:53 W 9 10 Partly Cloudy FEW050 SCT060 89 68     50%   93 30 30      
Aug 16 15:53 NNW 10 10 Mostly Clear FEW049 89 68     50%   93 30.01 30.01      
Aug 16 14:53 WNW 8 10 Partly Cloudy SCT047 SCT060 87 68     53%   91 30.01 30.01      
Aug 16 13:53 NW 9 10 Mostly Cloudy BKN047 86 68     55%   89 30.02 30.01      
Aug 16 12:53 NNW 11 10 Mostly Clear FEW045 86 68     55%   89 30.02 30.02      
Aug 16 11:53 NW 13 10 Mostly Clear FEW039 86 69     57%   90 30.02 30.02      
Aug 16 10:53 WNW 7 10 Clear CLR 85 70     61%   89 30.03 30.02      
Aug 16 09:53 W 8 10 Clear CLR 83 68     61%   86 30.02 30.02      
Aug 16 08:53 3 10 Clear CLR 79 70     74%   82 30.02 30.02      
Aug 16 07:53 S 3 10 Clear CLR 74 70     87%   75 30.01 30.01      
Aug 16 06:53 Calm 6 Fog/Mist CLR 71 69     93%   72 30 30      
Aug 16 05:53 S 3 8 Clear CLR 70 69     97%     29.98 29.98      
Aug 16 04:53 SSE 3 7 Clear CLR 70 69     97%     29.97 29.97      
Aug 16 03:53 Calm 8 Clear CLR 71 70     96%   72 29.96 29.96      
Aug 16 02:53 Calm 10 Clear CLR 72 69     91%   73 29.95 29.95      
Aug 16 01:53 WSW 3 10 Clear CLR 73 70     90%   74 29.96 29.95      
Aug 16 00:53 Calm 10 Clear CLR 74 70     87%   75 29.95 29.95      
Aug 15 23:53 S 5 10 Clear CLR 73 70     90%   74 29.93 29.93      
Aug 15 22:53 S 3 10 Clear CLR 74 70     87%   75 29.94 29.93      
Aug 15 21:53 SSE 3 10 Clear CLR 74 70     87%   75 29.93 29.93      
Aug 15 20:53 Calm 10 Clear CLR 78 70     76%   79 29.92 29.91      
Aug 15 19:53 WSW 5 10 Clear CLR 83 68     61%   86 29.89 29.89      
Aug 15 18:53 WSW 7 10 Clear CLR 85 67     55%   88 29.87 29.87      
Aug 15 17:53 WNW 9 10 Clear CLR 87 66     50%   89 29.86 29.86      
Aug 15 16:53 WNW 11 10 Clear CLR 88 66     48%   90 29.86 29.85      
Aug 15 15:53   10 Clear CLR 88 68     52%   92 29.86 29.86      
May 15 04:53 S 5 4 Clear   59 58     96%     29.86 29.85      
May 14 13:53 SSE 8 10 Clear CLR 67 55     66%     29.96 29.96      
May 14 04:31 S 3 10 Cloudy BKN012 OVC028 51 48     89%     30.01        
May 12 08:53 N 3 10 Cloudy OVC055 53 37     54%     30.18 30.18      
May 12 01:53 Calm 10 Mostly Clear FEW120 55 35     47%     30.14 30.14      
May 12 00:53 NNE 5 10 Clear CLR 55 37     51%     30.15 30.14      
May 11 21:53 N 5 10 Clear CLR 62 29     28%     30.1 30.1      
May 11 15:53 N 8 10 Clear CLR 69 36     30%     29.99 29.99      
May 11 11:53 NW 13 10 Mostly Clear FEW040 64 38     38%     29.99 29.98      
Jun 11 10:53 5 10 Clear CLR 84 63     49%   85 30.01 30.01      
Jun 10 18:53   10 Clear   79 57     47%   79 29.93 29.93      
Jun 10 12:51 SW 8 10 Mostly Cloudy BKN075 82 55     40%   82 29.95        
Jun 10 08:53 E 3 10 Clear CLR 71 56     59%   71 29.97 29.97      
Jun 09 22:53 S 3 10 Clear CLR 61 55     81%     29.84 29.83      
Jun 08 01:53 Calm 10 Clear CLR 53 50     89%     30.02 30.02      
Jun 07 09:53 NNE 10 10 Cloudy OVC060 59 49     69%     29.99 29.98      
Jun 07 08:53 N 8 10 Cloudy SCT055 BKN070 OVC080 57 50     77%     29.98 29.98      
Jun 06 14:53 N 9 6 Light Rain and Fog/Mist BKN014 OVC019 51 49     92%     29.82 29.82 0    
Notice The following observation data may not be complete
Jun 06 08:11   2.5 Light Rain and Fog/Mist BKN007 OVC014          %         0    
Jun 06 07:49 N 10 2.5 Light Rain and Fog/Mist OVC012 52 48     87%     29.79   0